Weather History for Alice, TX

Change the Weather History Date:

Tuesday, December 4, 2012

  Actual Average Record
Temperature  
Mean Temperature 74 °F -  
Max Temperature 87 °F 69 °F 87 °F (2012)
Min Temperature 62 °F 49 °F 37 °F (2006)
Cooling Degree Days 10    
Growing Degree Days 24 (Base 50)    
Moisture  
Dew Point 65 °F    
Average Humidity 83    
Maximum Humidity 100    
Minimum Humidity 43    
Precipitation  
Precipitation 0.00 in - - ()
Sea Level Pressure  
Sea Level Pressure 30.06 in    
Wind  
Wind Speed 3 mph (SE)    
Max Wind Speed 13 mph    
Max Gust Speed -    
Visibility 6 miles    
Events Fog    
Averages and records for this station are not official NWS values.
T = Trace of Precipitation, MM = Missing Value Source: NWS Daily Summary

Daily Weather History Graph

Daily Weather History Graph

Search for Another Location

Airport:

Trip Planner

Search our weather history database for the weather conditions in past years. The results will help you decide how hot, cold, wet, or windy it might be!

Date:

Astronomy

Dec. 04, 2012 Rise Set
Actual Time 7:08 AM CST 5:36 PM CST
Civil Twilight 6:42 AM CST 6:02 PM CST
Nautical Twilight 6:13 AM CST 6:31 PM CST
Astronomical Twilight 5:45 AM CST 6:59 PM CST
Moon 11:05 PM CST (12/4) 11:20 AM CST (12/4)
Length of Visible Light 11h 19m
Length of Day
10h 28m
Waning Gibbous, 69% of the Moon is Illuminated
Dec 4
Waning Gibbous
Dec 6
Last Quarter
Dec 13
New
Dec 19
First Quarter
Dec 28
Full

Hourly Weather History & Observations

Time (CST) Temp. Heat Index Dew Point Humidity Pressure Visibility Wind Dir Wind Speed Gust Speed Precip Events Conditions
12:39 AM 66.2 °F - 64.4 °F 94% 30.01 in 10.0 mi East 4.6 mph - N/A   Mostly Cloudy
12:53 AM 68.0 °F - 64.9 °F 90% 30.01 in 10.0 mi East 4.6 mph - N/A   Overcast
1:53 AM 68.0 °F - 66.0 °F 93% 30.02 in 10.0 mi Calm Calm - N/A   Overcast
2:24 AM 66.2 °F - 64.4 °F 94% 30.02 in 10.0 mi Calm Calm - N/A   Scattered Clouds
2:51 AM 66.2 °F - 64.4 °F 94% 30.02 in 7.0 mi Calm Calm - N/A   Mostly Cloudy
2:53 AM 66.0 °F - 64.9 °F 96% 30.02 in 7.0 mi Calm Calm - N/A   Mostly Cloudy
3:10 AM 66.2 °F - 64.4 °F 94% 30.02 in 4.0 mi Calm Calm - N/A   Scattered Clouds
3:16 AM 64.4 °F - 64.4 °F 100% 30.02 in 2.0 mi Calm Calm - N/A   Mostly Cloudy
3:19 AM 64.4 °F - 64.4 °F 100% 30.02 in 1.2 mi Calm Calm - N/A   Mostly Cloudy
3:23 AM 64.4 °F - 64.4 °F 100% 30.02 in 0.5 mi Calm Calm - N/A Fog Fog
3:33 AM 62.6 °F - 62.6 °F 100% 30.02 in 0.2 mi Calm Calm - N/A Fog Fog
3:48 AM 64.4 °F - 62.6 °F 94% 30.02 in 0.2 mi Calm Calm - N/A Fog Fog
3:53 AM 64.9 °F - 64.0 °F 97% 30.01 in 0.2 mi Calm Calm - N/A Fog Fog
4:04 AM 64.4 °F - 64.4 °F 100% 30.02 in 0.2 mi Calm Calm - N/A Fog Fog
4:46 AM 64.4 °F - 62.6 °F 94% 30.02 in 0.5 mi Calm Calm - N/A Fog Fog
4:53 AM 64.0 °F - 63.0 °F 96% 30.01 in 0.5 mi SE 3.5 mph - N/A Fog Fog
5:00 AM 64.4 °F - 62.6 °F 94% 30.02 in 0.2 mi SSE 3.5 mph - N/A Fog Fog
5:14 AM 64.4 °F - 62.6 °F 94% 30.02 in 0.5 mi Calm Calm - N/A Fog Fog
5:37 AM 64.4 °F - 62.6 °F 94% 30.02 in 0.5 mi SE 4.6 mph - N/A Fog Fog
5:43 AM 64.4 °F - 62.6 °F 94% 30.02 in 1.0 mi SE 3.5 mph - N/A   Mist
5:53 AM 64.9 °F - 64.0 °F 97% 30.02 in 3.0 mi SE 3.5 mph - N/A   Overcast
6:53 AM 68.0 °F - 66.9 °F 96% 30.04 in 8.0 mi Calm Calm - N/A   Overcast
8:24 AM 69.8 °F - 68.0 °F 94% 30.09 in 2.5 mi Calm Calm - N/A   Overcast
8:50 AM 69.8 °F - 68.0 °F 94% 30.10 in 1.2 mi SSE 3.5 mph - N/A   Overcast
8:53 AM 70.0 °F - 68.0 °F 93% 30.10 in 1.0 mi SE 3.5 mph - N/A   Overcast
9:12 AM 69.8 °F - 68.0 °F 94% 30.12 in 4.0 mi Calm Calm - N/A   Overcast
9:34 AM 71.6 °F - 68.0 °F 88% 30.13 in 7.0 mi Calm Calm - N/A   Overcast
9:53 AM 73.0 °F - 69.1 °F 87% 30.13 in 10.0 mi SE 4.6 mph - N/A   Overcast
10:00 AM 75.2 °F - 68.0 °F 78% 30.13 in 10.0 mi Calm Calm - N/A   Mostly Cloudy
10:46 AM 78.8 °F - 66.2 °F 65% 30.13 in 10.0 mi WSW 5.8 mph - N/A   Mostly Cloudy
10:53 AM 78.1 °F - 66.9 °F 68% 30.12 in 10.0 mi SSW 8.1 mph - N/A   Scattered Clouds
11:53 AM 82.0 °F 83.8 °F 64.9 °F 56% 30.10 in 10.0 mi South 9.2 mph - N/A   Clear
12:53 PM 84.0 °F 85.8 °F 64.9 °F 53% 30.06 in 10.0 mi South 10.4 mph - N/A   Clear
1:53 PM 86.0 °F 86.3 °F 62.1 °F 44% 30.04 in 10.0 mi South 11.5 mph - N/A   Clear
2:53 PM 87.1 °F 87.5 °F 62.1 °F 43% 30.02 in 10.0 mi South 11.5 mph - N/A   Partly Cloudy
3:53 PM 86.0 °F 86.1 °F 61.0 °F 43% 30.02 in 10.0 mi South 3.5 mph - N/A   Scattered Clouds
4:53 PM 82.9 °F 84.6 °F 64.9 °F 54% 30.04 in 10.0 mi North 11.5 mph - N/A   Mostly Cloudy
5:53 PM 80.1 °F 81.7 °F 64.0 °F 58% 30.06 in 10.0 mi North 10.4 mph - N/A   Mostly Cloudy
6:53 PM 79.0 °F - 64.9 °F 62% 30.09 in 10.0 mi North 12.7 mph - N/A   Overcast
7:53 PM 77.0 °F - 64.9 °F 66% 30.13 in 10.0 mi NNE 9.2 mph - N/A   Overcast
8:53 PM 75.9 °F - 64.0 °F 67% 30.13 in 10.0 mi NNE 10.4 mph - N/A   Overcast
9:53 PM 73.9 °F - 63.0 °F 68% 30.14 in 10.0 mi North 9.2 mph - N/A   Scattered Clouds
10:53 PM 71.1 °F - 63.0 °F 75% 30.14 in 10.0 mi North 8.1 mph - N/A   Partly Cloudy
11:53 PM 68.0 °F - 62.1 °F 81% 30.15 in 10.0 mi North 8.1 mph - N/A   Clear